Regional Weather Roundup
Issued by NWS

Home | Current Version | Previous Version | Graphics & Text | Print | Product List | Glossary On
Versions: 1 2 3 4 5 6 7 8 9 10 11 12 13 14 15 16 17 18 19 20 21 22 23 24 25 26 27 28 29 30 31 32 33 34 35 36 37 38 39 40 41 42 43 44 45 46 47 48 49 50
000
ASUS43 KLOT 090012
RWRIL

ILLINOIS REGIONAL WEATHER ROUNDUP
NATIONAL WEATHER SERVICE CHICAGO/ROMEOVILLE IL
600 PM CST THU DEC 08 2016

NOTE: "FAIR" INDICATES FEW OR NO CLOUDS BELOW 12,000 FEET WITH NO
SIGNIFICANT WEATHER AND/OR OBSTRUCTIONS TO VISIBILITY.

* THESE STATIONS ARE NOT UNDER NWS QUALITY CONTROL. THEY ALSO MAY NOT
  REPORT WEATHER SUCH AS PRECIPITATION OR FOG.

ILZ001-002-007-009-015-016-024-090100-
NORTHWEST ILLINOIS

CITY           SKY/WX    TMP DP  RH WIND       PRES   REMARKS
MOLINE         CLOUDY    23  13  65 W14       30.48R WCI  11
6HR MIN TEMP:  20; 6HR MAX TEMP:  23; 6HR PCP: TRACE;

STERLING*      FLURRIES  22  17  81 W14       30.44R WCI   9
SAVANNA*       CLOUDY    23  16  74 W10G17    30.44S WCI  13
$$

ILZ003-004-008-010-011-017-018-090100-
NORTH CENTRAL ILLINOIS

CITY           SKY/WX    TMP DP  RH WIND       PRES   REMARKS
ROCKFORD       FLURRIES  24  16  71 W16       30.41R WCI  11
6HR MIN TEMP:  19; 6HR MAX TEMP:  24; 6HR PCP: TRACE;

FREEPORT*      FLURRIES  22  15  75 W15       30.42R WCI   9
ROCHELLE*      CLOUDY    22  17  81 W14       30.41S WCI   9
DE KALB*       CLOUDY    22  17  79 W16G22    30.39R WCI   8
$$

ILZ005-006-012>014-019>023-090100-
NORTHEAST ILLINOIS

CITY           SKY/WX    TMP DP  RH WIND       PRES   REMARKS
CHICAGO-OHARE  FLURRIES  23  15  71 W16       30.37R WCI  10
6HR MIN TEMP:  19; 6HR MAX TEMP:  23; 6HR PCP: TRACE;

CHICAGO-MIDWAY FLURRIES  24  13  62 W15G23    30.38R WCI  11
6HR MIN TEMP:  20; 6HR MAX TEMP:  24; 6HR PCP: TRACE;

AURORA         CLOUDY    23  16  74 W16       30.40R WCI  10
6HR MIN TEMP:  19; 6HR MAX TEMP:  23; 6HR PCP: TRACE;

LANSING*       CLOUDY    22  17  80 W13G21    30.39R WCI  10
JOLIET*        CLOUDY    24  17  75 W12G18    30.42R WCI  13
WAUKEGAN       CLOUDY    24  15  68 W13G21    30.33R WCI  12
6HR MIN TEMP:  20; 6HR MAX TEMP:  24;

DUPAGE AIRPORT CLOUDY    22  14  71 W16       30.38R WCI   8
6HR MIN TEMP:  18; 6HR MAX TEMP:  22; 6HR PCP: TRACE;

KANKAKEE*      FLURRIES  22  15  72 W15       30.43R WCI   9
WHEELING       CLOUDY    23  15  71 NW12      30.38R WCI  12
6HR MIN TEMP:  20; 6HR MAX TEMP:  23;

MORRIS*        CLOUDY    23  16  75 W16       30.42R WCI   9
ROMEOVILLE*    FLURRIES  22  19  88 NW16      30.40R WCI   8
NORTHERLY ISL    N/A     24  17  74 W21         N/A  WCI  10
$$

LMZ740>746-090100-
SOUTHERN LAKE MICHIGAN

STATION/POSITION SKY/WX   TEMP    WIND        PRES    VSBY  WAVE
                          AIR SEA DIR/SP/G                  HT/PER
                          (F)     (DEG/KT/KT) (MB)    (MI)  (FT/S)
HARRISON CRIB              24     290/ 21/ 24   N/A
BURNHAM HARBOR             24     270/ 18/ 19   N/A
CALUMET HARBOR             23     260/  8/ 15 1027.9R
BURNS HARBOR               25     280/ 20/ 25 1028.1S
$$

ILZ025>027-034>036-040-047-049-050-058-095>099-090100-
WEST-CENTRAL ILLINOIS

CITY           SKY/WX    TMP DP  RH WIND       PRES   REMARKS
QUINCY         CLEAR     20  12  71 NW8       30.53R WCI  10
GALESBURG*     CLOUDY    20  14  76 W15       30.49S WCI   7
MACOMB*        CLOUDY    21  13  72 NW13      30.54S WCI   8
JACKSONVILLE*  CLOUDY    20  13  72 W7        30.53R WCI  11
PITTSFIELD*    CLOUDY    25  14  63 W5        30.55R WCI  19
$$

ILZ028>032-037-038-041>044-048-051>054-059>061-090100-
CENTRAL ILLINOIS

CITY           SKY/WX    TMP DP  RH WIND       PRES   REMARKS
PONTIAC        MIX PCPN  23  17  77 W17       30.46R WCI  10
BLOOMINGTON    FLURRIES  20  14  77 NW20      30.45S WCI   4
DECATUR        CLOUDY    21  12  68 W13G24    30.49R WCI   9
PEORIA         CLOUDY    21  12  68 NW13G18   30.50R WCI   9
6HR MIN TEMP:  19; 6HR MAX TEMP:  21;

LACON*         FLURRIES  22  14  73 W12G18    30.48R WCI  10
LINCOLN*       CLOUDY    22  14  71 NW10      30.50S WCI  11
SPRINGFIELD    CLOUDY    23  13  65 NW12      30.52R WCI  12
6HR MIN TEMP:  23; 6HR MAX TEMP:  26;

TAYLORVILLE    CLOUDY    23  13  64 NW10G22   30.51R WCI  12
6HR MIN TEMP:  22; 6HR MAX TEMP:  24;

$$

ILZ033-039-045-046-055>057-062-063-090100-
EAST-CENTRAL ILLINOIS

CITY           SKY/WX    TMP DP  RH WIND       PRES   REMARKS
CHAMPAIGN      FLURRIES  21  12  68 W20       30.47R WCI   6
RANTOUL*       FLURRIES  23  16  74 W16       30.45S WCI   9
MATTOON        CLOUDY    22  12  65 NW17      30.48R WCI   8
PARIS*         CLOUDY    22  15  75 W18       30.48R WCI   7
$$

ILZ079-100>102-090100-
SOUTHWEST ILLINOIS

CITY           SKY/WX    TMP DP  RH WIND       PRES   REMARKS
ALTON          CLEAR     25  14  63 W12       30.54R WCI  14
BELLEVILLE     PTCLDY    25  13  59 NW12      30.53R WCI  15
CAHOKIA*       PTCLDY    27  12  53 NW14      30.56R WCI  16
SPARTA*        PTCLDY    26  15  64 NW6       30.55R WCI  19
$$

ILZ064>066-069>071-074>076-080>082-084>086-088>090-092>094-090100-
SOUTH-CENTRAL ILLINOIS

CITY           SKY/WX    TMP DP  RH WIND       PRES   REMARKS
CARBONDALE     CLEAR     27  14  58 NW7       30.54R WCI  19
6HR MIN TEMP:  27; 6HR MAX TEMP:  33;

CAIRO*         CLEAR     29  16  57 N6        30.53R WCI  23
EFFINGHAM*     CLOUDY    25  17  69 W12       30.52R WCI  15
MARION         PTCLDY   N/A N/A N/A MISG      30.54R
CENTRALIA*     CLOUDY    28  17  64 NW8       30.52R WCI  20
SALEM*         CLOUDY    28  15  58 NW9G17    30.51S WCI  19
METROPOLIS*    CLEAR     29  15  55 CALM      30.52S
$$

ILZ067-068-072-073-078-083-087-091-090100-
SOUTHEAST ILLINOIS

CITY           SKY/WX    TMP DP  RH WIND       PRES   REMARKS
LAWRENCEVILLE  CLOUDY    25  14  63 NW16      30.50S WCI  12
FLORA*         CLOUDY    28  16  63 NW8G17    30.52S WCI  19
FAIRFIELD*     CLOUDY    27  16  63 CALM      30.51R
HARRISBURG*    PTCLDY    27  17  65 NW6       30.53R WCI  20
ROBINSON*      CLOUDY    24  15  68 NW16      30.50S WCI  11
CARMI*         PTCLDY    26  18  71 NW10      30.51R WCI  17
$$

ABBREVIATIONS USED IN REMARKS
   TC - TEMPERATURE IN CELSIUS
  WCI - WIND CHILL INDEX
   HX - HEAT INDEX
  VSB - VISIBILITY
$$





USA.gov is the U.S. government's official web portal to all federal, state and local government web resources and services.